Location: Arbon
(43.0005°N, 0.7472°E)
Time: 05:11:45
(UTC+00:00)

Vanguard 2 Rocket - Pass Details

Date: 22 June 2021
Orbit: 554 x 3325 km, 32.9° (Epoch: 26 July)

Event Time Altitude Azimuth Distance (km) Brightness Sun altitude
Rises 21:13:14 0° 264° (W) 7,311 12.0 -13.4°
Reaches altitude 10° 21:18:27 10° 261° (W) 6,217 11.5 -14.0°
Maximum altitude 21:36:46 56° 191° (S) 2,930 9.2 -15.9°
Enters shadow 21:47:11 16° 120° (ESE) 3,859 9.6 -17.0°
